Home > Weather > Gorgan > Past weeks

Flag for Iran Weather for the Past 2 Weeks in Gorgan, Iran

Now
30 °F

Clear.


Feels Like: 25 °F
Forecast: 35 / 55 °F
Wind: 5 mph from Southeast

Location: Gorgan Airport

Current Time: Feb 11, 2016 at 4:52:14 AM

Latest Report: Feb 11, 2016 at 3:30 AM


Visibility: 10 mi

Pressure: 30.36 "Hg

Humidity: 100%

Dew point: 30 °F

Location of GorganLocation

Historic Weather in Gorgan — Graph

°F

Gorgan Temperature Yesterday

Maximum temperature yesterday: 46 °F (at 1:30 PM)
Minimum temperature yesterday: 34 °F (at 6:30 AM)
Average temperature yesterday: 39 °F

High & Low Weather Summary for the Past Weeks

 TemperatureHumidityPressure
High77 °F (Feb 6, 1:30 PM)100% (Jan 27, 3:30 AM)30.60 "Hg (Jan 27, 3:30 AM)
Low27 °F (Jan 30, 6:30 AM)36% (Jan 30, 2:30 PM)29.77 "Hg (Feb 6, 5:30 PM)
Average44 °F85%30.27 "Hg
* Reported Jan 27 3:30 AM — Feb 11 3:30 AM, Gorgan, Weather by CustomWeather, © 2016

Note: Actual official high and low records may vary slightly from our data, if they occured in-between our weather recording intervals... More about our weather records

Advertising

Gorgan Weather History for the Previous 24 Hours

 ConditionsComfort  
Time TempWeatherWind HumidityBarometerVisibility
3:30 AM
Thu, Feb 11
30 °FClear.5 mph100%30.36 "Hg10 mi
2:30 AM30 °FClear.No wind93%30.39 "Hg10 mi
1:30 AM30 °FClear.No wind100%30.39 "Hg10 mi
12:30 AM32 °FClear.No wind93%30.39 "Hg10 mi
11:30 PM
Wed, Feb 10
34 °FClear.No wind100%30.42 "Hg10 mi
10:30 PM34 °FPassing clouds.No wind100%30.45 "HgN/A
9:30 PM34 °FPassing clouds.No wind100%30.48 "HgN/A
8:30 PM36 °FPassing clouds.No wind93%30.48 "HgN/A
7:30 PM37 °FPassing clouds.No wind87%30.48 "HgN/A
6:30 PM41 °FPassing clouds.No wind81%30.48 "HgN/A
5:30 PM43 °FPassing clouds.5 mph76%30.48 "HgN/A
4:30 PM45 °FScattered clouds.7 mph66%30.48 "HgN/A
3:30 PM46 °FScattered clouds.7 mph62%30.48 "HgN/A
2:30 PM46 °FScattered clouds.9 mph62%30.48 "HgN/A
1:30 PM46 °FScattered clouds.9 mph62%30.51 "HgN/A
12:30 PM45 °FScattered clouds.7 mph66%30.54 "HgN/A
12:00 PM45 °FScattered clouds.9 mph71%30.54 "HgN/A
11:30 AM45 °FScattered clouds.5 mph71%30.57 "HgN/A
11:00 AM43 °FScattered clouds.No wind76%30.60 "HgN/A
10:30 AM41 °FScattered clouds.No wind81%30.60 "HgN/A
10:00 AM41 °FScattered clouds.7 mph81%30.60 "HgN/A
9:30 AM39 °FScattered clouds.7 mph87%30.60 "HgN/A
9:00 AM37 °FScattered clouds.7 mph93%30.60 "Hg4 mi
8:30 AM36 °FScattered clouds.7 mph93%30.60 "HgN/A
7:30 AM34 °FScattered clouds.12 mph100%30.60 "HgN/A
6:30 AM34 °FPassing clouds.7 mph93%30.60 "HgN/A
5:30 AM36 °FMostly cloudy.12 mph100%30.57 "HgN/A
4:30 AM37 °FMostly cloudy.No wind93%30.57 "HgN/A
Weather by CustomWeather, © 2016

See weather overviewHow to use our weather pages